Regional Weather Roundup
Issued by NWS Charleston, WV

Home | Current Version | Previous Version | Text Only | Print | Product List | Glossary Off
Versions: 1 2 3 4 5 6 7 8 9 10 11 12 13 14 15 16 17 18 19 20 21 22 23 24 25 26 27 28 29 30 31 32 33 34 35 36 37 38 39 40 41 42 43 44 45 46 47 48 49 50

027
ASUS41 KRLX 260810
RWRRLX
West Virginia Regional Weather Roundup
National Weather Service Charleston WV
400 AM EDT THU MAY 26 2016

Note: "fair" indicates few or no clouds below 12,000 feet with no
significant weather and/or obstructions to visibility.

WVZ003-260900-
Northern Panhandle of West Virginia

CITY           SKY/WX    TMP DP  RH WIND       PRES   REMARKS
WHEELING       CLOUDY    68  56  65 S6        30.10R
$$

WVZ009-260900-
Northwest West Virginia

CITY           SKY/WX    TMP DP  RH WIND       PRES   REMARKS
PARKERSBURG    CLOUDY    62  60  93 CALM      30.12S
$$

WVZ006-260900-
Western West Virginia

CITY           SKY/WX    TMP DP  RH WIND       PRES   REMARKS
HUNTINGTON     CLOUDY    66  63  90 E3        30.09R
$$

WVZ015-260900-
West Central West Virginia

CITY           SKY/WX    TMP DP  RH WIND       PRES   REMARKS
CHARLESTON     MOCLDY    64  61  90 CALM      30.11S
$$

WVZ022-031-260900-
North Central West Virginia

CITY           SKY/WX    TMP DP  RH WIND       PRES   REMARKS
CLARKSBURG       N/A     59  57  93 CALM      30.12S
MORGANTOWN       N/A     63  53  70 S3        30.13S
$$

WVZ025-035-042-045-260900-
Southern West Virginia

CITY           SKY/WX    TMP DP  RH WIND       PRES   REMARKS
BECKLEY        MOCLDY    64  56  75 CALM      30.20R
LOGAN          CLOUDY    70  59  68 CALM      30.14S
BLUEFIELD      CLOUDY    66  55  67 SW3       30.22S
LEWISBURG        N/A     55  55  97 CALM      30.21R
$$

WVZ047-260900-
Northern Mountains of West Virginia

CITY           SKY/WX    TMP DP  RH WIND       PRES   REMARKS
ELKINS         MOCLDY    54  52  93 CALM      30.19S
$$

WVZ052-260900-
Eastern Panhandle of West Virginia

CITY           SKY/WX    TMP DP  RH WIND       PRES   REMARKS
MARTINSBURG    MOCLDY    58  56  93 CALM      30.11R
PETERSBURG       N/A     56  56  98 CALM      30.16S FOG
$$




USA.gov is the U.S. government's official web portal to all federal, state and local government web resources and services.